GLV1411 SBVT-SBSV

Flight info

Callsign GLV1411
Flight time 1h 23m
Altitude 31000
Route GIDOD DCT XUXUG
Aircraft B738/M-SDE2E3FGHIRWXY/LB1

Departure

Time 2026-04-21 18:59
Airport Eurico de Aguiar Salles International Airport (SBVT)

Arrival

Time 2026-04-21 20:23
Airport Deputado Luiz Eduardo Magalhães International Airport (SBSV)
Time Latitude Longitude Altitude Speed Heading
2026-04-21 18:39 -20.25953 -40.29015 11 ft 0 kts 304°
2026-04-21 18:44 -20.25953 -40.29013 11 ft 1 kts 304°
2026-04-21 18:44 -20.25962 -40.29000 11 ft 2 kts 303°
2026-04-21 18:44 -20.25973 -40.28990 11 ft 2 kts 345°
2026-04-21 18:44 -20.25989 -40.28990 10 ft 2 kts 19°
2026-04-21 18:45 -20.25995 -40.28993 10 ft 0 kts 37°
2026-04-21 18:45 -20.25999 -40.28996 10 ft 0 kts 33°
2026-04-21 18:47 -20.25990 -40.28990 10 ft 3 kts 33°
2026-04-21 18:47 -20.25969 -40.28975 10 ft 3 kts 33°
2026-04-21 18:48 -20.25954 -40.28965 10 ft 2 kts 33°
2026-04-21 18:48 -20.25939 -40.28955 10 ft 2 kts 32°
2026-04-21 18:48 -20.25926 -40.28946 10 ft 2 kts 32°
2026-04-21 18:48 -20.25913 -40.28937 10 ft 2 kts 32°
2026-04-21 18:49 -20.25890 -40.28922 10 ft 4 kts 32°
2026-04-21 18:49 -20.25855 -40.28900 10 ft 6 kts 30°
2026-04-21 18:49 -20.25825 -40.28881 10 ft 8 kts 30°
2026-04-21 18:49 -20.25761 -40.28840 10 ft 6 kts 31°
2026-04-21 18:50 -20.25728 -40.28818 10 ft 4 kts 31°
2026-04-21 18:50 -20.25712 -40.28802 10 ft 1 kts 53°
2026-04-21 18:50 -20.25707 -40.28791 10 ft 1 kts 73°
2026-04-21 18:50 -20.25712 -40.28766 10 ft 5 kts 114°
2026-04-21 18:51 -20.25736 -40.28724 9 ft 6 kts 122°
2026-04-21 18:51 -20.25755 -40.28679 9 ft 5 kts 90°
2026-04-21 18:51 -20.25740 -40.28648 9 ft 5 kts 43°
2026-04-21 18:51 -20.25721 -40.28634 10 ft 2 kts 31°
2026-04-21 18:52 -20.25707 -40.28625 10 ft 2 kts 30°
2026-04-21 18:52 -20.25684 -40.28610 10 ft 4 kts 31°
2026-04-21 18:52 -20.25654 -40.28591 11 ft 5 kts 31°
2026-04-21 18:52 -20.25618 -40.28567 12 ft 6 kts 31°
2026-04-21 18:53 -20.25572 -40.28537 13 ft 8 kts 32°
2026-04-21 18:53 -20.25521 -40.28504 14 ft 9 kts 32°
2026-04-21 18:53 -20.25456 -40.28460 14 ft 12 kts 32°
2026-04-21 18:53 -20.25380 -40.28410 14 ft 12 kts 32°
2026-04-21 18:54 -20.25308 -40.28362 14 ft 11 kts 32°
2026-04-21 18:54 -20.25248 -40.28321 14 ft 9 kts 32°
2026-04-21 18:54 -20.25199 -40.28290 14 ft 7 kts 31°
2026-04-21 18:54 -20.25159 -40.28264 14 ft 5 kts 31°
2026-04-21 18:55 -20.25135 -40.28249 14 ft 7 kts 31°
2026-04-21 18:55 -20.25082 -40.28213 13 ft 6 kts 31°
2026-04-21 18:55 -20.25044 -40.28189 12 ft 6 kts 31°
2026-04-21 18:55 -20.25001 -40.28161 11 ft 8 kts 31°
2026-04-21 18:56 -20.24949 -40.28127 9 ft 10 kts 31°
2026-04-21 18:56 -20.24882 -40.28100 7 ft 9 kts
2026-04-21 18:56 -20.24827 -40.28084 7 ft 7 kts 18°
2026-04-21 18:56 -20.24796 -40.28083 7 ft 3 kts 336°
2026-04-21 18:57 -20.24783 -40.28105 8 ft 2 kts 254°
2026-04-21 18:57 -20.24791 -40.28111 8 ft 0 kts 211°
2026-04-21 18:57 -20.24797 -40.28112 8 ft 3 kts 192°
2026-04-21 18:57 -20.24815 -40.28112 8 ft 1 kts 185°
2026-04-21 18:58 -20.24828 -40.28112 7 ft 3 kts 178°
2026-04-21 18:58 -20.24870 -40.28107 7 ft 16 kts 173°
2026-04-21 18:58 -20.25221 -40.28051 16 ft 86 kts 169°
2026-04-21 18:58 -20.26027 -40.27929 9 ft 145 kts 172°
2026-04-21 18:59 -20.27151 -40.27768 118 ft 178 kts 172°
2026-04-21 18:59 -20.28447 -40.27643 384 ft 205 kts 175°
2026-04-21 18:59 -20.29923 -40.27492 757 ft 221 kts 170°
2026-04-21 18:59 -20.31471 -40.27197 1258 ft 226 kts 169°
2026-04-21 19:00 -20.33023 -40.26915 1759 ft 229 kts 170°
2026-04-21 19:00 -20.34587 -40.26665 2259 ft 231 kts 171°
2026-04-21 19:00 -20.36139 -40.26248 2747 ft 234 kts 150°
2026-04-21 19:00 -20.37278 -40.24974 3263 ft 251 kts 115°
2026-04-21 19:01 -20.37511 -40.23141 3760 ft 251 kts 80°
2026-04-21 19:01 -20.36727 -40.21497 4267 ft 252 kts 49°
2026-04-21 19:01 -20.35544 -40.20138 4782 ft 252 kts 62°
2026-04-21 19:01 -20.35074 -40.18391 5276 ft 248 kts 89°
2026-04-21 19:02 -20.35003 -40.16605 5785 ft 251 kts 87°
2026-04-21 19:02 -20.34712 -40.14755 6280 ft 254 kts 78°
2026-04-21 19:02 -20.34193 -40.12949 6779 ft 256 kts 73°
2026-04-21 19:02 -20.33583 -40.11174 7271 ft 259 kts 68°
2026-04-21 19:03 -20.32646 -40.09500 7777 ft 273 kts 52°
2026-04-21 19:03 -20.31223 -40.08108 8280 ft 288 kts 34°
2026-04-21 19:03 -20.29378 -40.07194 8781 ft 296 kts 17°
2026-04-21 19:03 -20.27331 -40.06855 9289 ft 299 kts
2026-04-21 19:04 -20.25274 -40.06673 9782 ft 301 kts
2026-04-21 19:04 -20.23174 -40.06475 10276 ft 304 kts
2026-04-21 19:04 -20.21015 -40.06249 10437 ft 328 kts
2026-04-21 19:04 -20.18680 -40.05990 10731 ft 345 kts
2026-04-21 19:05 -20.16269 -40.05715 11372 ft 350 kts
2026-04-21 19:05 -20.13846 -40.05430 12071 ft 354 kts
2026-04-21 19:05 -20.11406 -40.05140 12759 ft 357 kts
2026-04-21 19:05 -20.08927 -40.04835 13456 ft 360 kts
2026-04-21 19:06 -20.06437 -40.04527 14144 ft 363 kts
2026-04-21 19:06 -20.03945 -40.04222 14822 ft 366 kts
2026-04-21 19:06 -20.01399 -40.03914 15510 ft 370 kts
2026-04-21 19:06 -19.98833 -40.03612 16166 ft 373 kts
2026-04-21 19:07 -19.96261 -40.03319 16807 ft 376 kts
2026-04-21 19:07 -19.93633 -40.03134 17425 ft 380 kts
2026-04-21 19:07 -19.91009 -40.03126 18042 ft 383 kts
2026-04-21 19:07 -19.88343 -40.03151 18633 ft 386 kts
2026-04-21 19:08 -19.85650 -40.03172 19213 ft 389 kts
2026-04-21 19:08 -19.82931 -40.03186 19782 ft 392 kts
2026-04-21 19:08 -19.80187 -40.03197 20338 ft 395 kts
2026-04-21 19:08 -19.77459 -40.03206 20863 ft 398 kts
2026-04-21 19:09 -19.74672 -40.03215 21348 ft 401 kts
2026-04-21 19:09 -19.71885 -40.03223 21829 ft 403 kts
2026-04-21 19:09 -19.69097 -40.03230 22289 ft 406 kts
2026-04-21 19:09 -19.66245 -40.03232 22748 ft 408 kts
2026-04-21 19:10 -19.63426 -40.03026 23184 ft 410 kts
2026-04-21 19:10 -19.60599 -40.02643 23626 ft 412 kts
2026-04-21 19:10 -19.57768 -40.02192 24040 ft 415 kts 10°
2026-04-21 19:10 -19.54923 -40.01705 24460 ft 417 kts 10°
2026-04-21 19:11 -19.52083 -40.01200 24856 ft 419 kts 11°
2026-04-21 19:11 -19.49200 -40.00676 25255 ft 421 kts 11°
2026-04-21 19:11 -19.46302 -40.00142 25639 ft 424 kts 11°
2026-04-21 19:11 -19.43406 -39.99604 26011 ft 426 kts 11°
2026-04-21 19:12 -19.40481 -39.99056 26380 ft 428 kts 11°
2026-04-21 19:12 -19.37568 -39.98509 26731 ft 430 kts 11°
2026-04-21 19:12 -19.34617 -39.97953 27085 ft 432 kts 11°
2026-04-21 19:12 -19.31641 -39.97391 27433 ft 434 kts 11°
2026-04-21 19:13 -19.28680 -39.96832 27765 ft 436 kts 11°
2026-04-21 19:13 -19.25693 -39.96267 28088 ft 438 kts 11°
2026-04-21 19:13 -19.22709 -39.95704 28407 ft 440 kts 11°
2026-04-21 19:13 -19.19703 -39.95140 28713 ft 442 kts 11°
2026-04-21 19:14 -19.16680 -39.94572 29019 ft 444 kts 11°
2026-04-21 19:14 -19.13608 -39.93995 29317 ft 446 kts 11°
2026-04-21 19:14 -19.10597 -39.93430 29604 ft 447 kts 11°
2026-04-21 19:14 -19.07528 -39.92853 29887 ft 449 kts 11°
2026-04-21 19:15 -19.04443 -39.92274 30165 ft 451 kts 11°
2026-04-21 19:15 -19.01356 -39.91695 30416 ft 453 kts 11°
2026-04-21 19:15 -18.98280 -39.91118 30682 ft 455 kts 12°
2026-04-21 19:15 -18.95160 -39.90533 30990 ft 455 kts 12°
2026-04-21 19:16 -18.92032 -39.89946 31049 ft 457 kts 13°
2026-04-21 19:16 -18.85792 -39.88776 31047 ft 457 kts 13°
2026-04-21 19:17 -18.76466 -39.87023 31047 ft 456 kts 13°
2026-04-21 19:17 -18.70243 -39.85851 31047 ft 457 kts 13°
2026-04-21 19:18 -18.64010 -39.84683 31047 ft 457 kts 13°
2026-04-21 19:18 -18.57793 -39.83517 31047 ft 457 kts 13°
2026-04-21 19:19 -18.51588 -39.82356 31046 ft 456 kts 13°
2026-04-21 19:19 -18.45379 -39.81191 31046 ft 455 kts 13°
2026-04-21 19:20 -18.39142 -39.80024 31047 ft 456 kts 13°
2026-04-21 19:20 -18.32982 -39.78870 31038 ft 457 kts 13°
2026-04-21 19:21 -18.26779 -39.77712 31027 ft 456 kts 13°
2026-04-21 19:21 -18.20645 -39.76566 31020 ft 456 kts 13°
2026-04-21 19:22 -18.14541 -39.75427 31020 ft 457 kts 13°
2026-04-21 19:22 -18.08373 -39.74277 31020 ft 457 kts 13°
2026-04-21 19:23 -18.02329 -39.73150 31020 ft 457 kts 13°
2026-04-21 19:23 -17.96249 -39.72016 31020 ft 457 kts 13°
2026-04-21 19:24 -17.90137 -39.70877 31020 ft 457 kts 13°
2026-04-21 19:24 -17.84008 -39.69735 31020 ft 457 kts 13°
2026-04-21 19:25 -17.77958 -39.68608 31019 ft 457 kts 13°
2026-04-21 19:25 -17.71906 -39.67482 31020 ft 457 kts 13°
2026-04-21 19:26 -17.65824 -39.66350 31020 ft 457 kts 13°
2026-04-21 19:26 -17.59627 -39.65197 31020 ft 457 kts 13°
2026-04-21 19:27 -17.53444 -39.64048 31020 ft 457 kts 13°
2026-04-21 19:27 -17.47280 -39.62903 31019 ft 456 kts 13°
2026-04-21 19:28 -17.41066 -39.61749 31020 ft 457 kts 13°
2026-04-21 19:28 -17.34942 -39.60612 31020 ft 457 kts 13°
2026-04-21 19:29 -17.28826 -39.59476 31020 ft 457 kts 13°
2026-04-21 19:29 -17.22749 -39.58349 31020 ft 457 kts 13°
2026-04-21 19:30 -17.16627 -39.57213 31020 ft 457 kts 13°
2026-04-21 19:30 -17.10455 -39.56068 31020 ft 457 kts 13°
2026-04-21 19:31 -17.04256 -39.54911 31020 ft 459 kts 13°
2026-04-21 19:31 -16.97953 -39.53733 31020 ft 461 kts 14°
2026-04-21 19:32 -16.91669 -39.52560 31019 ft 462 kts 14°
2026-04-21 19:32 -16.85416 -39.51397 31019 ft 462 kts 14°
2026-04-21 19:33 -16.79137 -39.50229 31019 ft 460 kts 14°
2026-04-21 19:33 -16.72926 -39.49073 31021 ft 461 kts 14°
2026-04-21 19:34 -16.66727 -39.47921 31019 ft 461 kts 14°
2026-04-21 19:34 -16.60543 -39.46772 31020 ft 461 kts 14°
2026-04-21 19:35 -16.51252 -39.45049 31020 ft 462 kts 14°
2026-04-21 19:36 -16.45152 -39.43922 31019 ft 461 kts 14°
2026-04-21 19:36 -16.39042 -39.42794 31020 ft 461 kts 14°
2026-04-21 19:37 -16.32926 -39.41667 31020 ft 462 kts 14°
2026-04-21 19:37 -16.26831 -39.40545 31019 ft 462 kts 14°
2026-04-21 19:38 -16.20768 -39.39429 31020 ft 462 kts 14°
2026-04-21 19:38 -16.14625 -39.38300 31020 ft 463 kts 14°
2026-04-21 19:39 -16.08482 -39.37180 31019 ft 462 kts 13°
2026-04-21 19:39 -16.02308 -39.36059 31021 ft 462 kts 14°
2026-04-21 19:40 -15.96049 -39.34934 31020 ft 461 kts 13°
2026-04-21 19:40 -15.89804 -39.34034 31020 ft 464 kts 11°
2026-04-21 19:41 -15.83529 -39.33229 31020 ft 464 kts 11°
2026-04-21 19:41 -15.77253 -39.32418 31020 ft 464 kts 11°
2026-04-21 19:42 -15.71050 -39.31616 31019 ft 463 kts 11°
2026-04-21 19:42 -15.64860 -39.30809 31019 ft 462 kts 11°
2026-04-21 19:43 -15.58523 -39.29984 31008 ft 463 kts 11°
2026-04-21 19:43 -15.52166 -39.29156 30996 ft 464 kts 11°
2026-04-21 19:44 -15.45806 -39.28326 30993 ft 464 kts 11°
2026-04-21 19:44 -15.39413 -39.27492 30992 ft 464 kts 11°
2026-04-21 19:45 -15.33042 -39.26665 30993 ft 463 kts 11°
2026-04-21 19:45 -15.26674 -39.25835 30993 ft 464 kts 11°
2026-04-21 19:46 -15.20283 -39.25002 30992 ft 464 kts 10°
2026-04-21 19:46 -15.13922 -39.24176 30993 ft 464 kts 11°
2026-04-21 19:47 -15.07537 -39.23346 30994 ft 465 kts 10°
2026-04-21 19:47 -15.01160 -39.22517 30992 ft 465 kts 10°
2026-04-21 19:48 -14.94748 -39.21687 30992 ft 465 kts 10°
2026-04-21 19:48 -14.88371 -39.20863 30992 ft 464 kts 10°
2026-04-21 19:49 -14.81977 -39.20044 30993 ft 464 kts 10°
2026-04-21 19:49 -14.75589 -39.19222 30993 ft 464 kts 10°
2026-04-21 19:50 -14.69205 -39.18399 30993 ft 464 kts 10°
2026-04-21 19:50 -14.63013 -39.17604 30988 ft 438 kts 10°
2026-04-21 19:50 -14.60042 -39.17223 30994 ft 427 kts 11°
2026-04-21 19:51 -14.57110 -39.16844 30997 ft 429 kts 11°
2026-04-21 19:51 -14.51132 -39.16067 30995 ft 437 kts 11°
2026-04-21 19:52 -14.45137 -39.15293 30991 ft 433 kts 11°
2026-04-21 19:52 -14.42171 -39.14912 30785 ft 426 kts 11°
2026-04-21 19:52 -14.39251 -39.14536 30290 ft 422 kts 10°
2026-04-21 19:52 -14.36361 -39.14164 29825 ft 417 kts 10°
2026-04-21 19:53 -14.33528 -39.13798 29362 ft 413 kts 10°
2026-04-21 19:53 -14.30683 -39.13432 28899 ft 409 kts 10°
2026-04-21 19:53 -14.27900 -39.13073 28444 ft 405 kts 10°
2026-04-21 19:53 -14.25112 -39.12714 27986 ft 401 kts 10°
2026-04-21 19:54 -14.22381 -39.12362 27538 ft 398 kts 10°
2026-04-21 19:54 -14.19664 -39.12012 27090 ft 394 kts
2026-04-21 19:54 -14.16945 -39.11662 26639 ft 392 kts
2026-04-21 19:54 -14.14222 -39.11309 26202 ft 400 kts
2026-04-21 19:55 -14.11441 -39.10949 25729 ft 408 kts
2026-04-21 19:55 -14.08677 -39.10593 25258 ft 404 kts
2026-04-21 19:55 -14.05913 -39.10238 24797 ft 399 kts
2026-04-21 19:55 -14.03182 -39.09887 24336 ft 395 kts
2026-04-21 19:56 -14.00450 -39.09536 23878 ft 392 kts
2026-04-21 19:56 -13.97776 -39.09193 23424 ft 388 kts
2026-04-21 19:56 -13.95552 -39.08907 23047 ft 385 kts
2026-04-21 20:02 -13.93753 -39.08676 22741 ft 383 kts
2026-04-21 20:02 -13.91121 -39.08337 22267 ft 380 kts
2026-04-21 20:02 -13.88527 -39.08004 21819 ft 377 kts
2026-04-21 20:03 -13.85918 -39.07659 21368 ft 373 kts
2026-04-21 20:03 -13.83399 -39.07308 20935 ft 370 kts
2026-04-21 20:03 -13.80836 -39.06941 20491 ft 367 kts
2026-04-21 20:03 -13.78354 -39.06559 20057 ft 364 kts 11°
2026-04-21 20:04 -13.75893 -39.06050 19612 ft 360 kts 15°
2026-04-21 20:04 -13.73485 -39.05361 19165 ft 357 kts 19°
2026-04-21 20:04 -13.71153 -39.04509 18721 ft 354 kts 23°
2026-04-21 20:04 -13.68927 -39.03524 18273 ft 351 kts 27°
2026-04-21 20:05 -13.66763 -39.02398 17811 ft 349 kts 31°
2026-04-21 20:05 -13.64674 -39.01115 17352 ft 346 kts 35°
2026-04-21 20:05 -13.62723 -38.99745 16907 ft 344 kts 37°
2026-04-21 20:05 -13.60793 -38.98270 16461 ft 341 kts 39°
2026-04-21 20:06 -13.58949 -38.96776 16033 ft 338 kts 40°
2026-04-21 20:06 -13.57131 -38.95258 15601 ft 335 kts 41°
2026-04-21 20:06 -13.55349 -38.93753 15174 ft 333 kts 41°
2026-04-21 20:06 -13.53593 -38.92264 14752 ft 331 kts 41°
2026-04-21 20:07 -13.51848 -38.90790 14335 ft 328 kts 41°
2026-04-21 20:07 -13.50100 -38.89315 13913 ft 326 kts 41°
2026-04-21 20:07 -13.48352 -38.87842 13492 ft 325 kts 40°
2026-04-21 20:07 -13.46614 -38.86389 13073 ft 323 kts 40°
2026-04-21 20:08 -13.44933 -38.84994 12668 ft 322 kts 40°
2026-04-21 20:09 -13.43801 -38.84060 12397 ft 321 kts 40°
2026-04-21 20:09 -13.43502 -38.83814 12325 ft 321 kts 40°
2026-04-21 20:09 -13.41782 -38.82400 11912 ft 320 kts 40°
2026-04-21 20:10 -13.40733 -38.81539 11659 ft 319 kts 40°
2026-04-21 20:10 -13.39014 -38.80129 11246 ft 318 kts 40°
2026-04-21 20:10 -13.37297 -38.78722 10831 ft 316 kts 40°
2026-04-21 20:10 -13.35587 -38.77321 10422 ft 315 kts 40°
2026-04-21 20:11 -13.34752 -38.76637 10266 ft 309 kts 40°
2026-04-21 20:11 -13.33430 -38.75555 10167 ft 292 kts 40°
2026-04-21 20:11 -13.31889 -38.74294 10062 ft 279 kts 40°
2026-04-21 20:12 -13.30384 -38.73062 9875 ft 274 kts 40°
2026-04-21 20:12 -13.28900 -38.71847 9505 ft 276 kts 40°
2026-04-21 20:12 -13.27384 -38.70605 9157 ft 277 kts 40°
2026-04-21 20:12 -13.25893 -38.69385 9057 ft 270 kts 40°
2026-04-21 20:13 -13.24442 -38.68197 8875 ft 275 kts 40°
2026-04-21 20:13 -13.22925 -38.66954 8346 ft 286 kts 40°
2026-04-21 20:13 -13.21367 -38.65680 7835 ft 291 kts 40°
2026-04-21 20:13 -13.19780 -38.64382 7447 ft 291 kts 40°
2026-04-21 20:14 -13.18219 -38.63106 7078 ft 285 kts 40°
2026-04-21 20:14 -13.16688 -38.61855 6743 ft 274 kts 40°
2026-04-21 20:14 -13.15224 -38.60659 6418 ft 265 kts 40°
2026-04-21 20:14 -13.13808 -38.59503 6101 ft 257 kts 40°
2026-04-21 20:15 -13.12411 -38.58362 5785 ft 251 kts 40°
2026-04-21 20:15 -13.11052 -38.57251 5478 ft 252 kts 40°
2026-04-21 20:15 -13.09692 -38.56140 5186 ft 242 kts 40°
2026-04-21 20:15 -13.08404 -38.55088 4843 ft 235 kts 40°
2026-04-21 20:16 -13.07141 -38.54058 4501 ft 229 kts 40°
2026-04-21 20:16 -13.05912 -38.53055 4134 ft 224 kts 40°
2026-04-21 20:16 -13.04632 -38.52216 3807 ft 215 kts 28°
2026-04-21 20:16 -13.03244 -38.51700 3407 ft 210 kts 14°
2026-04-21 20:17 -13.01843 -38.51442 3028 ft 204 kts 10°
2026-04-21 20:17 -13.00460 -38.51231 2655 ft 197 kts 10°
2026-04-21 20:17 -12.99135 -38.51035 2407 ft 184 kts 10°
2026-04-21 20:17 -12.97909 -38.50851 2469 ft 176 kts 10°
2026-04-21 20:18 -12.97120 -38.50732 2454 ft 174 kts 10°
2026-04-21 20:18 -12.95582 -38.50353 2397 ft 161 kts 29°
2026-04-21 20:18 -12.94700 -38.49706 2459 ft 156 kts 44°
2026-04-21 20:18 -12.94011 -38.48860 2412 ft 155 kts 72°
2026-04-21 20:19 -12.93794 -38.47809 2460 ft 150 kts 86°
2026-04-21 20:19 -12.93683 -38.46726 2445 ft 153 kts 86°
2026-04-21 20:19 -12.93568 -38.45652 2423 ft 151 kts 84°
2026-04-21 20:19 -12.93369 -38.44599 2330 ft 152 kts 80°
2026-04-21 20:20 -12.93135 -38.43538 2080 ft 153 kts 80°
2026-04-21 20:20 -12.92905 -38.42489 1862 ft 149 kts 81°
2026-04-21 20:20 -12.92698 -38.41448 1658 ft 149 kts 82°
2026-04-21 20:20 -12.92494 -38.40405 1454 ft 149 kts 81°
2026-04-21 20:21 -12.92285 -38.39360 1250 ft 149 kts 81°
2026-04-21 20:21 -12.92078 -38.38333 1051 ft 148 kts 81°
2026-04-21 20:21 -12.91869 -38.37296 852 ft 148 kts 81°
2026-04-21 20:21 -12.91663 -38.36268 653 ft 148 kts 81°
2026-04-21 20:22 -12.91456 -38.35237 456 ft 147 kts 81°
2026-04-21 20:22 -12.91050 -38.33184 101 ft 146 kts 82°
2026-04-21 20:22 -12.90871 -38.32252 72 ft 105 kts 70°
2026-04-21 20:23 -12.90747 -38.31683 71 ft 54 kts 75°
2026-04-21 20:23 -12.90681 -38.31364 71 ft 36 kts 78°
2026-04-21 20:23 -12.90630 -38.31124 71 ft 28 kts 77°
2026-04-21 20:23 -12.90602 -38.30980 71 ft 14 kts 83°
2026-04-21 20:24 -12.90619 -38.30911 71 ft 7 kts 144°
2026-04-21 20:24 -12.90658 -38.30896 71 ft 5 kts 166°
2026-04-21 20:24 -12.90698 -38.30895 71 ft 9 kts 189°
2026-04-21 20:24 -12.90738 -38.30926 71 ft 5 kts 251°
2026-04-21 20:25 -12.90746 -38.30956 71 ft 3 kts 254°
2026-04-21 20:25 -12.90753 -38.30989 71 ft 6 kts 258°
2026-04-21 20:25 -12.90763 -38.31039 71 ft 7 kts 258°
2026-04-21 20:25 -12.90773 -38.31087 71 ft 6 kts 258°
2026-04-21 20:26 -12.90781 -38.31131 71 ft 5 kts 258°
2026-04-21 20:26 -12.90789 -38.31169 71 ft 5 kts 259°
2026-04-21 20:26 -12.90795 -38.31204 71 ft 4 kts 259°
2026-04-21 20:26 -12.90801 -38.31235 71 ft 4 kts 259°
2026-04-21 20:27 -12.90806 -38.31262 71 ft 3 kts 259°
2026-04-21 20:27 -12.90812 -38.31290 71 ft 4 kts 258°
2026-04-21 20:27 -12.90819 -38.31325 71 ft 5 kts 257°
2026-04-21 20:27 -12.90828 -38.31367 71 ft 6 kts 257°
2026-04-21 20:28 -12.90839 -38.31417 71 ft 7 kts 257°
2026-04-21 20:28 -12.90851 -38.31474 71 ft 8 kts 258°
2026-04-21 20:28 -12.90864 -38.31538 71 ft 9 kts 257°
2026-04-21 20:28 -12.90880 -38.31612 71 ft 10 kts 259°
2026-04-21 20:29 -12.90894 -38.31691 71 ft 12 kts 259°
2026-04-21 20:29 -12.90912 -38.31780 71 ft 11 kts 257°
2026-04-21 20:29 -12.90930 -38.31864 71 ft 12 kts 259°
2026-04-21 20:29 -12.90947 -38.31958 71 ft 13 kts 258°
2026-04-21 20:30 -12.90966 -38.32050 71 ft 13 kts 258°
2026-04-21 20:30 -12.90985 -38.32146 71 ft 13 kts 258°
2026-04-21 20:30 -12.91004 -38.32241 71 ft 13 kts 258°
2026-04-21 20:30 -12.91022 -38.32333 71 ft 12 kts 258°
2026-04-21 20:31 -12.91039 -38.32420 71 ft 12 kts 258°
2026-04-21 20:31 -12.91057 -38.32503 71 ft 11 kts 257°
2026-04-21 20:31 -12.91073 -38.32581 71 ft 10 kts 259°
2026-04-21 20:31 -12.91087 -38.32655 71 ft 10 kts 258°
2026-04-21 20:32 -12.91102 -38.32724 71 ft 9 kts 258°
2026-04-21 20:32 -12.91114 -38.32789 71 ft 8 kts 259°
2026-04-21 20:32 -12.91126 -38.32849 71 ft 8 kts 258°
2026-04-21 20:32 -12.91138 -38.32904 71 ft 7 kts 257°
2026-04-21 20:33 -12.91139 -38.32912 71 ft 7 kts 257°
2026-04-21 20:33 -12.91146 -38.32944 71 ft 6 kts 258°
2026-04-21 20:33 -12.91155 -38.32990 71 ft 6 kts 258°
2026-04-21 20:33 -12.91162 -38.33024 71 ft 5 kts 258°
2026-04-21 20:34 -12.91168 -38.33052 71 ft 4 kts 258°
2026-04-21 20:34 -12.91174 -38.33084 71 ft 4 kts 258°
2026-04-21 20:34 -12.91179 -38.33111 71 ft 3 kts 258°
2026-04-21 20:35 -12.91185 -38.33131 71 ft 2 kts 244°
2026-04-21 20:35 -12.91197 -38.33149 71 ft 2 kts 225°
2026-04-21 20:35 -12.91201 -38.33152 71 ft 2 kts 218°
2026-04-21 20:35 -12.91207 -38.33156 71 ft 0 kts 204°
2026-04-21 20:36 -12.91221 -38.33159 71 ft 4 kts 190°
2026-04-21 20:36 -12.91252 -38.33169 71 ft 3 kts 211°
2026-04-21 20:36 -12.91264 -38.33184 71 ft 2 kts 245°
2026-04-21 20:36 -12.91270 -38.33204 71 ft 4 kts 254°
2026-04-21 20:37 -12.91272 -38.33212 71 ft 4 kts 256°
2026-04-21 20:37 -12.91278 -38.33237 71 ft 3 kts 257°
2026-04-21 20:37 -12.91283 -38.33261 71 ft 2 kts 253°
2026-04-21 20:37 -12.91287 -38.33265 71 ft 0 kts 222°
2026-04-21 20:38 -12.91295 -38.33271 71 ft 1 kts 206°
2026-04-21 20:38 -12.91309 -38.33273 71 ft 1 kts 180°
2026-04-21 20:38 -12.91317 -38.33273 71 ft 1 kts 173°
2026-04-21 20:38 -12.91332 -38.33270 71 ft 2 kts 169°
2026-04-21 20:39 -12.91341 -38.33268 71 ft 0 kts 168°
2026-04-21 20:39 -12.91342 -38.33268 71 ft 0 kts 168°